Home   Weather   Welland   Past weeks

Flag for Canada Past Weather in Welland, Ontario, Canada — Yesterday and Last 2 Weeks

Now
45 °F

Cool.


Feels Like: 45 °F
Forecast: 40 / 58 °F
Wind: No wind

Location: Port Colborne Airport

Current Time: Apr 24, 2017 at 3:55:21 am

Latest Report: Apr 24, 2017 at 3:00 am


Visibility: N/A

Pressure: 30.09 "Hg

Humidity: 76%

Dew Point: 38 °F

Location of WellandLocation

Past Weather in Welland — Graph

°F

Welland Temperature Yesterday

Maximum temperature yesterday: 48 °F (at 11:00 pm)
Minimum temperature yesterday: 41 °F (at 6:00 am)
Average temperature yesterday: 44 °F

High & Low Weather Summary for the Past Weeks

 TemperatureHumidityPressure
High67 °F (Apr 10, 8:00 pm)100% (Apr 21, 8:00 am)30.55 "Hg (Apr 21, 8:00 am)
Low35 °F (Apr 18, 7:00 am)21% (Apr 14, 5:00 pm)29.78 "Hg (Apr 21, 3:00 am)
Average47 °F69%30.11 "Hg
* Reported Apr 9 2:00 am — Apr 24 2:00 am, Welland, Weather by CustomWeather, © 2017

Note: Actual official high and low records may vary slightly from our data, if they occured in-between our weather recording intervals... More about our weather records

Advertising

Welland Weather History for the Previous 24 Hours

Scroll right to see more
 ConditionsComfort  
Time TempWeatherWind HumidityBarometerVisibility
2:00 am
Mon, Apr 24
46 °FCool.3 mph63%30.09 "HgN/A
1:00 am48 °FCool.3 mph53%30.09 "HgN/A
12:00 am49 °FCool.8 mph50%30.09 "HgN/A
11:00 pm
Sun, Apr 23
48 °FCool.7 mph63%30.09 "HgN/A
10:00 pm47 °FCool.5 mph74%30.09 "HgN/A
9:00 pm45 °FCool.7 mph79%30.07 "HgN/A
8:00 pm46 °FCool.2 mph79%30.07 "HgN/A
7:00 pm46 °FCool.7 mph78%30.08 "HgN/A
6:00 pm46 °FCool.3 mph79%30.08 "HgN/A
5:00 pm47 °FCool.7 mph74%30.07 "HgN/A
4:00 pm48 °FCool.6 mph70%30.08 "HgN/A
3:00 pm47 °FCool.9 mph70%30.09 "HgN/A
2:00 pm47 °FCool.9 mph72%30.11 "HgN/A
1:00 pm45 °FCool.9 mph73%30.13 "HgN/A
12:00 pm44 °FQuite cool.10 mph73%30.14 "HgN/A
11:00 am43 °FQuite cool.9 mph76%30.15 "HgN/A
10:00 am42 °FQuite cool.8 mph80%30.15 "HgN/A
9:00 am41 °FQuite cool.9 mph82%30.16 "HgN/A
8:00 am41 °FQuite cool.9 mph78%30.15 "HgN/A
7:00 am41 °FQuite cool.8 mph85%30.14 "HgN/A
6:00 am41 °FQuite cool.12 mph79%30.12 "HgN/A
5:00 am41 °FQuite cool.10 mph84%30.11 "HgN/A
4:00 am41 °FQuite cool.9 mph85%30.11 "HgN/A
3:00 am41 °FQuite cool.8 mph86%30.12 "HgN/A
Weather by CustomWeather, © 2017

See weather overviewHow to use our weather pages